Home > Time Zones > World Clock > Weather > Peru > Callao > Past weeks

Flag for Peru Weather past 2 weeks in Callao, Callao, Peru

Now
66 °F

Overcast.


Feels Like: 66 °F
Forecast: 67 / 72 °F
Wind: 10 mph from Southeast

Location: Lima-Callao / Aerop. Internacional Jorgechavez

Current Time: Jul 4, 2015 at 7:54:27 PM

Latest Report: Jul 4, 2015 at 7:00 PM


Visibility: N/A

Pressure: 29.89 "Hg

Humidity: 83%

Dew point: 61 °F

Location of CallaoLocation

Historic Weather in Callao — Graph

°F

Callao temperature yesterday

Maximum temperature yesterday: 70 °F (at 10:00 AM)
Minimum temperature yesterday: 66 °F (at 5:00 AM)
Average temperature yesterday: 69 °F

Past Weeks' High & Low Weather Summary

 TemperatureHumidityPressure
High84 °F (Jul 4, 2:00 PM)88% (Jun 21, 9:00 PM)30.01 "Hg (Jun 21, 9:00 PM)
Low66 °F (Jun 26, 3:00 AM)48% (Jul 4, 2:00 PM)29.77 "Hg (Jul 4, 3:00 AM)
Average70 °F77%29.89 "Hg
* Reported Jun 19 6:00 PM — Jul 4 6:00 PM, Callao, Weather by CustomWeather, © 2015

Note: Actual official high and low records may vary slightly from our data, if they occured in-between our weather recording intervals... More about our weather records

Advertising

Callao weather history for previous 24 hours

 ConditionsComfort  
Time TempWeatherWind HumidityBarometerVisibility
6:00 PM
Sat, Jul 4
66 °FOvercast.8 mph88%29.89 "HgN/A
5:00 PM66 °FLow clouds.10 mph88%29.89 "HgN/A
4:00 PM68 °FOvercast.9 mph83%29.86 "HgN/A
3:00 PM68 °FMore clouds than sun.10 mph83%29.86 "HgN/A
2:00 PM84 °FThunderstorms. Overcast.7 mph48%29.86 "HgN/A
1:00 PM70 °FOvercast.5 mph78%29.89 "HgN/A
12:00 PM70 °FMore clouds than sun.3 mph78%29.89 "HgN/A
11:00 AM70 °FOvercast.5 mph78%29.89 "HgN/A
10:00 AM70 °FOvercast.3 mph73%29.89 "HgN/A
9:00 AM70 °FOvercast.2 mph78%29.89 "HgN/A
8:00 AM68 °FOvercast.5 mph78%29.86 "HgN/A
7:00 AM68 °FMore clouds than sun.6 mph78%29.83 "HgN/A
6:00 AM68 °FOvercast.6 mph78%29.80 "HgN/A
5:00 AM66 °FOvercast.8 mph88%29.80 "HgN/A
4:00 AM68 °FOvercast.7 mph83%29.77 "HgN/A
3:00 AM68 °FOvercast.10 mph78%29.77 "HgN/A
2:00 AM68 °FOvercast.10 mph83%29.80 "HgN/A
1:00 AM68 °FOvercast.12 mph83%29.80 "HgN/A
12:00 AM68 °FPartly cloudy.10 mph83%29.80 "Hg6 mi
11:00 PM
Fri, Jul 3
68 °FPartly cloudy.13 mph83%29.80 "Hg6 mi
10:00 PM68 °FOvercast.12 mph83%29.83 "Hg6 mi
9:00 PM68 °FOvercast.10 mph83%29.83 "Hg5 mi
8:00 PM68 °FOvercast.12 mph83%29.83 "Hg6 mi
7:00 PM68 °FMostly cloudy.10 mph83%29.83 "Hg5 mi
Weather by CustomWeather, © 2015

See weather overviewHow to use our weather pages